| time (UTC) | temp F | wind direction | speed knots | gust knots | rain 1hr in | rain 24hr in | rain mn in | humidity % | barometer mb |
| 20260902203507 | 55 | 298 | 6.1 | 13.0 | 0.00 | 0.05 | 0.02 | 63 | 1010.0 |
| 20260902203011 | 55 | 296 | 6.1 | 13.0 | 0.00 | 0.05 | 0.02 | 62 | 1009.9 |
| 20260902202507 | 55 | 307 | 6.1 | 13.0 | 0.00 | 0.05 | 0.02 | 62 | 1009.9 |
| 20260902202008 | 55 | 313 | 5.2 | 15.6 | 0.00 | 0.05 | 0.02 | 61 | 1010.0 |
| 20260902201507 | 55 | 314 | 7.8 | 15.6 | 0.00 | 0.05 | 0.02 | 61 | 1010.0 |
| 20260902201007 | 55 | 299 | 7.8 | 15.6 | 0.00 | 0.06 | 0.02 | 61 | 1010.0 |
| 20260902200507 | 55 | 305 | 7.8 | 15.6 | 0.00 | 0.06 | 0.02 | 59 | 1009.9 |
| 20260902200011 | 55 | 295 | 7.8 | 15.6 | 0.00 | 0.06 | 0.02 | 59 | 1010.0 |
| 20260902195507 | 55 | 300 | 8.7 | 15.6 | 0.00 | 0.06 | 0.02 | 61 | 1009.8 |
| 20260902194507 | 56 | 318 | 7.8 | 17.4 | 0.00 | 0.08 | 0.02 | 62 | 1010.0 |
| 20260902194007 | 56 | 298 | 7.8 | 18.2 | 0.00 | 0.08 | 0.02 | 63 | 1010.0 |
| 20260902193507 | 56 | 299 | 8.7 | 17.4 | 0.00 | 0.08 | 0.02 | 64 | 1010.1 |
| 20260902193011 | 56 | 309 | 8.7 | 22.6 | 0.00 | 0.08 | 0.02 | 65 | 1010.0 |
| 20260902192507 | 56 | 301 | 11.3 | 22.6 | 0.00 | 0.08 | 0.02 | 66 | 1010.0 |
| 20260902192007 | 56 | 301 | 8.7 | 18.2 | 0.00 | 0.08 | 0.02 | 65 | 1009.8 |
| 20260902191507 | 56 | 290 | 10.4 | 20.0 | 0.00 | 0.08 | 0.02 | 64 | 1010.0 |
| 20260902191007 | 57 | 295 | 11.3 | 21.7 | 0.00 | 0.08 | 0.02 | 63 | 1009.9 |
| 20260902190507 | 56 | 265 | 10.4 | 22.6 | 0.00 | 0.08 | 0.02 | 64 | 1010.0 |
| 20260902190011 | 56 | 288 | 10.4 | 25.2 | 0.00 | 0.08 | 0.02 | 63 | 1009.9 |
| 20260902185507 | 56 | 274 | 10.4 | 20.9 | 0.00 | 0.08 | 0.02 | 63 | 1010.1 |
| 20260902185008 | 56 | 297 | 9.6 | 21.7 | 0.00 | 0.08 | 0.02 | 63 | 1010.1 |
| 20260902184007 | 56 | 303 | 7.8 | 19.1 | 0.00 | 0.08 | 0.02 | 60 | 1009.8 |
| 20260902183507 | 56 | 302 | 7.8 | 17.4 | 0.00 | 0.08 | 0.02 | 59 | 1009.9 |
| 20260902183011 | 56 | 291 | 8.7 | 19.1 | 0.00 | 0.08 | 0.02 | 60 | 1009.9 |
| 20260902182507 | 56 | 308 | 9.6 | 19.1 | 0.00 | 0.08 | 0.02 | 61 | 1009.9 |
| 20260902182007 | 56 | 296 | 9.6 | 19.1 | 0.00 | 0.08 | 0.02 | 62 | 1009.9 |
| 20260902181507 | 56 | 295 | 10.4 | 20.9 | 0.00 | 0.08 | 0.02 | 62 | 1009.7 |
| 20260902181007 | 56 | 301 | 11.3 | 20.9 | 0.00 | 0.08 | 0.02 | 64 | 1009.8 |
| 20260902180507 | 56 | 297 | 8.7 | 20.0 | 0.00 | 0.08 | 0.02 | 63 | 1009.8 |
| 20260902180011 | 56 | 296 | 11.3 | 20.0 | 0.00 | 0.08 | 0.02 | 63 | 1009.8 |
| 20260902175007 | 56 | 298 | 10.4 | 22.6 | 0.00 | 0.08 | 0.02 | 64 | 1009.7 |
| 20260902174507 | 57 | 300 | 11.3 | 24.3 | 0.00 | 0.08 | 0.02 | 63 | 1009.8 |
| 20260902174007 | 57 | 303 | 11.3 | 24.3 | 0.00 | 0.08 | 0.02 | 62 | 1009.8 |
| 20260902173508 | 57 | 295 | 12.2 | 20.9 | 0.00 | 0.08 | 0.02 | 63 | 1009.6 |
| 20260902173011 | 58 | 294 | 11.3 | 20.9 | 0.00 | 0.08 | 0.02 | 61 | 1009.6 |
| 20260902172507 | 58 | 294 | 10.4 | 24.3 | 0.00 | 0.08 | 0.02 | 62 | 1009.7 |
| 20260902172007 | 58 | 293 | 11.3 | 25.2 | 0.00 | 0.08 | 0.02 | 64 | 1009.6 |
| 20260902170507 | 57 | 303 | 11.3 | 21.7 | 0.00 | 0.08 | 0.02 | 65 | 1009.6 |
| 20260902170011 | 58 | 293 | 11.3 | 22.6 | 0.00 | 0.08 | 0.02 | 63 | 1009.5 |
| 20260902165507 | 58 | 288 | 11.3 | 20.9 | 0.00 | 0.08 | 0.02 | 61 | 1009.5 |
| 20260902164507 | 58 | 304 | 10.4 | 21.7 | 0.00 | 0.08 | 0.02 | 61 | 1009.7 |
| 20260902164006 | 58 | 304 | 10.4 | 21.7 | 0.00 | 0.08 | 0.02 | 60 | 1009.4 |
| 20260902163507 | 58 | 304 | 9.6 | 21.7 | 0.00 | 0.08 | 0.02 | 60 | 1009.6 |
| 20260902163011 | 59 | 300 | 11.3 | 20.9 | 0.00 | 0.08 | 0.02 | 56 | 1009.5 |
| 20260902162507 | 59 | 293 | 10.4 | 20.9 | 0.00 | 0.08 | 0.02 | 56 | 1009.5 |
| 20260902162007 | 59 | 288 | 12.2 | 21.7 | 0.00 | 0.08 | 0.02 | 57 | 1009.5 |
| 20260902161007 | 59 | 294 | 11.3 | 25.2 | 0.00 | 0.08 | 0.02 | 58 | 1009.4 |
| 20260902160507 | 60 | 311 | 11.3 | 24.3 | 0.00 | 0.08 | 0.02 | 58 | 1009.5 |
| 20260902160011 | 60 | 317 | 9.6 | 22.6 | 0.00 | 0.08 | 0.02 | 62 | 1009.4 |
| 20260902155507 | 59 | 319 | 11.3 | 22.6 | 0.00 | 0.08 | 0.02 | 64 | 1009.6 |
| 20260902155007 | 58 | 307 | 10.4 | 22.6 | 0.00 | 0.08 | 0.02 | 62 | 1009.6 |
| 20260902154507 | 59 | 302 | 11.3 | 25.2 | 0.00 | 0.08 | 0.02 | 60 | 1009.6 |
| 20260902154007 | 59 | 307 | 11.3 | 22.6 | 0.00 | 0.08 | 0.02 | 59 | 1009.6 |
| 20260902153507 | 59 | 308 | 10.4 | 22.6 | 0.00 | 0.08 | 0.02 | 58 | 1009.8 |
| 20260902153010 | 59 | 296 | 10.4 | 21.7 | 0.00 | 0.08 | 0.02 | 60 | 1009.9 |
| 20260902152507 | 59 | 292 | 11.3 | 24.3 | 0.00 | 0.08 | 0.02 | 57 | 1009.6 |
| 20260902152007 | 60 | 298 | 11.3 | 21.7 | 0.00 | 0.08 | 0.02 | 60 | 1009.7 |
| 20260902151507 | 60 | 302 | 11.3 | 24.3 | 0.00 | 0.08 | 0.02 | 57 | 1009.8 |
| 20260902151007 | 60 | 297 | 11.3 | 24.3 | 0.00 | 0.08 | 0.02 | 58 | 1009.8 |
| 20260902150507 | 60 | 317 | 11.3 | 22.6 | 0.00 | 0.08 | 0.02 | 57 | 1009.6 |
| 20260902150010 | 60 | 298 | 11.3 | 22.6 | 0.00 | 0.08 | 0.02 | 58 | 1009.7 |
| 20260902145007 | 61 | 299 | 13.9 | 26.1 | 0.00 | 0.08 | 0.02 | 56 | 1009.8 |
| 20260902144507 | 61 | 281 | 11.3 | 21.7 | 0.00 | 0.08 | 0.02 | 54 | 1009.8 |
| 20260902144007 | 61 | 297 | 13.0 | 25.2 | 0.00 | 0.08 | 0.02 | 56 | 1009.8 |
| 20260902143507 | 61 | 290 | 10.4 | 26.1 | 0.00 | 0.08 | 0.02 | 58 | 1009.8 |
| 20260902143010 | 60 | 298 | 11.3 | 26.9 | 0.00 | 0.08 | 0.02 | 58 | 1009.8 |
| 20260902142507 | 60 | 310 | 13.9 | 26.9 | 0.00 | 0.08 | 0.02 | 59 | 1009.6 |
| 20260902142007 | 61 | 302 | 13.9 | 27.8 | 0.00 | 0.08 | 0.02 | 59 | 1009.6 |
| 20260902141507 | 61 | 300 | 13.0 | 25.2 | 0.00 | 0.08 | 0.02 | 57 | 1009.7 |
| 20260902140506 | 61 | 300 | 10.4 | 27.8 | 0.00 | 0.08 | 0.02 | 61 | 1009.6 |
| 20260902140010 | 61 | 303 | 12.2 | 24.3 | 0.00 | 0.08 | 0.02 | 60 | 1009.4 |
| 20260902135506 | 61 | 294 | 13.9 | 26.1 | 0.00 | 0.08 | 0.02 | 61 | 1009.4 |
| 20260902135007 | 61 | 302 | 10.4 | 21.7 | 0.00 | 0.08 | 0.02 | 65 | 1009.4 |
| 20260902134507 | 60 | 311 | 10.4 | 22.6 | 0.00 | 0.08 | 0.02 | 65 | 1009.3 |
| 20260902134007 | 60 | 316 | 13.0 | 24.3 | 0.00 | 0.08 | 0.02 | 65 | 1009.4 |
| 20260902133507 | 61 | 293 | 11.3 | 21.7 | 0.00 | 0.08 | 0.02 | 65 | 1009.5 |
| 20260902133010 | 61 | 292 | 10.4 | 24.3 | 0.00 | 0.08 | 0.02 | 64 | 1009.5 |
| 20260902132506 | 61 | 301 | 13.0 | 27.8 | 0.00 | 0.08 | 0.02 | 62 | 1009.2 |
| 20260902132006 | 61 | 293 | 13.9 | 26.9 | 0.00 | 0.08 | 0.02 | 63 | 1009.3 |
| 20260902131507 | 61 | 265 | 11.3 | 21.7 | 0.00 | 0.08 | 0.02 | 61 | 1009.3 |
| 20260902130506 | 61 | 281 | 12.2 | 21.7 | 0.00 | 0.08 | 0.02 | 63 | 1009.3 |
| 20260902130010 | 61 | 298 | 10.4 | 25.2 | 0.00 | 0.08 | 0.02 | 62 | 1009.5 |
| 20260902125507 | 61 | 298 | 11.3 | 22.6 | 0.00 | 0.08 | 0.02 | 62 | 1009.5 |
| 20260902125007 | 60 | 306 | 13.0 | 25.2 | 0.00 | 0.08 | 0.02 | 64 | 1009.6 |
| 20260902124506 | 60 | 303 | 12.2 | 24.3 | 0.00 | 0.08 | 0.02 | 67 | 1009.5 |
| 20260902124006 | 60 | 299 | 11.3 | 21.7 | 0.00 | 0.08 | 0.02 | 68 | 1009.4 |
| 20260902123506 | 60 | 273 | 11.3 | 20.0 | 0.00 | 0.08 | 0.02 | 67 | 1009.4 |
| 20260902123011 | 60 | 287 | 12.2 | 21.7 | 0.00 | 0.08 | 0.02 | 66 | 1009.3 |
| 20260902122506 | 61 | 288 | 12.2 | 22.6 | 0.00 | 0.08 | 0.02 | 66 | 1009.4 |
| 20260902122006 | 61 | 275 | 12.2 | 22.6 | 0.00 | 0.08 | 0.02 | 65 | 1009.3 |
| 20260902121507 | 61 | 273 | 11.3 | 21.7 | 0.00 | 0.08 | 0.02 | 63 | 1009.2 |
| 20260902121007 | 61 | 290 | 13.0 | 25.2 | 0.00 | 0.08 | 0.02 | 62 | 1009.3 |
| 20260902120507 | 61 | 282 | 11.3 | 22.6 | 0.00 | 0.08 | 0.02 | 63 | 1009.3 |
| 20260902120010 | 61 | 288 | 13.0 | 24.3 | 0.00 | 0.08 | 0.02 | 61 | 1009.2 |
| 20260902115507 | 61 | 301 | 11.3 | 24.3 | 0.00 | 0.08 | 0.02 | 62 | 1009.1 |
| 20260902115006 | 61 | 295 | 11.3 | 22.6 | 0.00 | 0.08 | 0.02 | 66 | 1009.0 |
| 20260902114506 | 61 | 289 | 11.3 | 21.7 | 0.00 | 0.08 | 0.02 | 67 | 1009.1 |
| 20260902114006 | 61 | 285 | 11.3 | 20.9 | 0.00 | 0.08 | 0.02 | 67 | 1009.1 |
| 20260902113506 | 61 | 289 | 13.0 | 25.2 | 0.00 | 0.08 | 0.02 | 67 | 1009.0 |
| 20260902113010 | 61 | 281 | 12.2 | 24.3 | 0.00 | 0.08 | 0.02 | 70 | 1009.2 |
| 20260902112506 | 61 | 273 | 10.4 | 24.3 | 0.00 | 0.08 | 0.02 | 68 | 1009.2 |
| 20260902111506 | 61 | 298 | 11.3 | 20.9 | 0.00 | 0.08 | 0.02 | 69 | 1009.1 |
| 20260902110010 | 60 | 294 | 8.7 | 17.4 | 0.00 | 0.08 | 0.02 | 74 | 1009.3 |
| 20260902105506 | 59 | 298 | 10.4 | 21.7 | 0.00 | 0.08 | 0.02 | 76 | 1009.3 |
| 20260902105006 | 58 | 293 | 9.6 | 20.0 | 0.00 | 0.08 | 0.02 | 82 | 1009.1 |
| 20260902104507 | 58 | 290 | 10.4 | 22.6 | 0.00 | 0.08 | 0.02 | 81 | 1009.2 |
| 20260902104006 | 60 | 290 | 15.6 | 27.8 | 0.00 | 0.08 | 0.02 | 77 | 1009.0 |
| 20260902103010 | 62 | 277 | 10.4 | 21.7 | 0.00 | 0.08 | 0.02 | 69 | 1009.0 |
| 20260902102506 | 61 | 290 | 9.6 | 20.0 | 0.00 | 0.08 | 0.02 | 70 | 1009.0 |
| 20260902101507 | 61 | 304 | 11.3 | 21.7 | 0.00 | 0.08 | 0.02 | 70 | 1009.1 |
| 20260902101007 | 61 | 303 | 10.4 | 20.0 | 0.00 | 0.08 | 0.02 | 69 | 1009.1 |
| 20260902100506 | 62 | 288 | 10.4 | 20.0 | 0.00 | 0.08 | 0.02 | 69 | 1009.1 |
| 20260902095506 | 62 | 301 | 8.7 | 18.2 | 0.00 | 0.08 | 0.02 | 72 | 1009.1 |
| 20260902095006 | 61 | 290 | 9.6 | 20.0 | 0.00 | 0.08 | 0.02 | 71 | 1009.1 |
| 20260902094506 | 62 | 295 | 8.7 | 20.9 | 0.00 | 0.08 | 0.02 | 73 | 1009.0 |
| 20260902094006 | 61 | 314 | 7.0 | 13.9 | 0.00 | 0.08 | 0.02 | 77 | 1008.9 |
| 20260902093010 | 60 | 297 | 7.8 | 19.1 | 0.01 | 0.08 | 0.02 | 76 | 1008.8 |
| 20260902092507 | 60 | 305 | 7.8 | 15.6 | 0.01 | 0.08 | 0.02 | 76 | 1009.0 |
| 20260902092006 | 59 | 307 | 6.1 | 14.8 | 0.01 | 0.08 | 0.02 | 80 | 1009.0 |
| 20260902091506 | 58 | 308 | 7.0 | 15.6 | 0.01 | 0.08 | 0.02 | 79 | 1009.0 |
| 20260902091006 | 57 | 297 | 7.8 | 17.4 | 0.01 | 0.08 | 0.02 | 81 | 1009.1 |
| 20260902090010 | 55 | 304 | 6.1 | 15.6 | 0.01 | 0.08 | 0.02 | 87 | 1009.0 |
| 20260902085506 | 55 | 320 | 7.8 | 20.0 | 0.01 | 0.08 | 0.02 | 89 | 1008.9 |
| 20260902084506 | 55 | 308 | 11.3 | 26.1 | 0.00 | 0.08 | 0.02 | 89 | 1009.0 |
| 20260902084006 | 55 | 303 | 12.2 | 28.7 | 0.00 | 0.08 | 0.02 | 87 | 1009.1 |
| 20260902083506 | 58 | 294 | 17.4 | 33.0 | 0.00 | 0.07 | 0.01 | 81 | 1008.8 |
| 20260902083010 | 62 | 281 | 14.8 | 31.3 | 0.00 | 0.07 | 0.01 | 68 | 1008.4 |
| 20260902082507 | 61 | 261 | 10.4 | 24.3 | 0.00 | 0.07 | 0.01 | 67 | 1008.3 |
| 20260902082007 | 61 | 268 | 10.4 | 20.9 | 0.00 | 0.07 | 0.01 | 70 | 1008.4 |
| 20260902081506 | 61 | 284 | 8.7 | 20.0 | 0.00 | 0.07 | 0.01 | 69 | 1008.5 |
| 20260902081009 | 61 | 282 | 10.4 | 20.0 | 0.00 | 0.07 | 0.01 | 69 | 1008.3 |
| 20260902080012 | 60 | 265 | 8.7 | 20.0 | 0.00 | 0.07 | 0.01 | 73 | 1008.3 |
| 20260902075509 | 60 | 266 | 8.7 | 20.0 | 0.00 | 0.07 | 0.01 | 73 | 1008.3 |
| 20260902075008 | 60 | 256 | 8.7 | 21.7 | 0.00 | 0.07 | 0.01 | 76 | 1008.3 |
| 20260902074509 | 59 | 263 | 8.7 | 20.0 | 0.00 | 0.07 | 0.01 | 78 | 1008.0 |
| 20260902074009 | 60 | 261 | 11.3 | 22.6 | 0.00 | 0.07 | 0.01 | 75 | 1008.2 |
| 20260902073013 | 60 | 266 | 13.0 | 24.3 | 0.00 | 0.07 | 0.01 | 72 | 1008.0 |
| 20260902072509 | 60 | 267 | 10.4 | 21.7 | 0.00 | 0.07 | 0.01 | 71 | 1008.1 |
| 20260902072008 | 60 | 265 | 9.6 | 22.6 | 0.00 | 0.07 | 0.01 | 73 | 1008.0 |
| 20260902071509 | 60 | 261 | 11.3 | 20.0 | 0.00 | 0.07 | 0.01 | 71 | 1008.0 |
| 20260902071008 | 60 | 261 | 10.4 | 20.9 | 0.00 | 0.07 | 0.01 | 71 | 1007.8 |
| 20260902070509 | 60 | 261 | 8.7 | 24.3 | 0.00 | 0.07 | 0.01 | 72 | 1008.0 |
| 20260902070012 | 60 | 254 | 9.6 | 20.9 | 0.00 | 0.07 | 0.01 | 72 | 1007.9 |
| 20260902065509 | 60 | 262 | 10.4 | 20.9 | 0.00 | 0.07 | 0.01 | 71 | 1007.9 |
| 20260902065008 | 60 | 265 | 8.7 | 20.0 | 0.00 | 0.07 | 0.01 | 73 | 1007.9 |
| 20260902064509 | 59 | 263 | 8.7 | 19.1 | 0.00 | 0.07 | 0.01 | 75 | 1008.0 |
| 20260902064009 | 58 | 265 | 5.2 | 14.8 | 0.00 | 0.07 | 0.01 | 77 | 1007.9 |
| 20260902063508 | 59 | 285 | 7.8 | 15.6 | 0.00 | 0.07 | 0.01 | 76 | 1007.8 |
| 20260902063012 | 59 | 268 | 9.6 | 20.9 | 0.00 | 0.07 | 0.01 | 73 | 1007.9 |
| 20260902062508 | 59 | 264 | 8.7 | 20.0 | 0.00 | 0.07 | 0.01 | 73 | 1007.9 |
| 20260902062009 | 59 | 267 | 8.7 | 20.9 | 0.00 | 0.07 | 0.01 | 74 | 1007.8 |
| 20260902061508 | 59 | 261 | 10.4 | 20.9 | 0.00 | 0.07 | 0.01 | 75 | 1007.8 |
| 20260902061008 | 59 | 265 | 10.4 | 20.9 | 0.00 | 0.07 | 0.01 | 72 | 1007.8 |
| 20260902060508 | 59 | 264 | 8.7 | 19.1 | 0.00 | 0.07 | 0.01 | 72 | 1007.9 |
| 20260902060012 | 59 | 262 | 8.7 | 19.1 | 0.00 | 0.07 | 0.01 | 71 | 1007.9 |
| 20260902055510 | 59 | 266 | 9.6 | 19.1 | 0.00 | 0.07 | 0.01 | 72 | 1007.9 |
| 20260902055008 | 59 | 261 | 9.6 | 20.0 | 0.00 | 0.07 | 0.01 | 72 | 1007.9 |
| 20260902054509 | 59 | 261 | 7.8 | 19.1 | 0.00 | 0.07 | 0.01 | 73 | 1007.9 |
| 20260902054008 | 59 | 260 | 8.7 | 19.1 | 0.00 | 0.07 | 0.01 | 74 | 1007.8 |
| 20260902053508 | 59 | 265 | 8.7 | 17.4 | 0.00 | 0.07 | 0.01 | 71 | 1007.8 |
| 20260902053012 | 59 | 272 | 7.8 | 17.4 | 0.00 | 0.07 | 0.01 | 73 | 1007.8 |
| 20260902052508 | 58 | 257 | 7.8 | 17.4 | 0.00 | 0.07 | 0.01 | 73 | 1007.6 |
| 20260902052008 | 58 | 265 | 7.8 | 17.4 | 0.00 | 0.07 | 0.01 | 73 | 1007.6 |
| 20260902051508 | 58 | 258 | 6.1 | 14.8 | 0.00 | 0.07 | 0.01 | 74 | 1007.7 |
| 20260902050508 | 58 | 273 | 7.0 | 14.8 | 0.00 | 0.07 | 0.01 | 75 | 1007.7 |
| 20260902050012 | 57 | 274 | 5.2 | 10.4 | 0.00 | 0.07 | 0.01 | 77 | 1007.7 |
| 20260902045509 | 57 | 308 | 6.1 | 11.3 | 0.00 | 0.07 | 0.01 | 77 | 1007.6 |
| 20260902045008 | 57 | 311 | 6.1 | 11.3 | 0.00 | 0.07 | 0.01 | 77 | 1007.8 |
| 20260902044508 | 57 | 301 | 5.2 | 11.3 | 0.00 | 0.07 | 0.01 | 76 | 1007.8 |
| 20260902043508 | 56 | 309 | 5.2 | 12.2 | 0.00 | 0.07 | 0.01 | 78 | 1007.8 |
| 20260902043012 | 56 | 299 | 5.2 | 12.2 | 0.00 | 0.07 | 0.01 | 78 | 1007.6 |
| 20260902042508 | 56 | 310 | 4.3 | 8.7 | 0.00 | 0.07 | 0.01 | 77 | 1007.8 |
| 20260902042008 | 56 | 302 | 5.2 | 10.4 | 0.00 | 0.07 | 0.01 | 77 | 1007.8 |
| 20260902041508 | 57 | 310 | 5.2 | 12.2 | 0.00 | 0.07 | 0.01 | 76 | 1007.7 |
| 20260902041008 | 56 | 304 | 6.1 | 13.9 | 0.00 | 0.07 | 0.01 | 76 | 1007.8 |
| 20260902040508 | 56 | 295 | 7.0 | 13.9 | 0.00 | 0.07 | 0.01 | 76 | 1007.7 |
| 20260902040011 | 56 | 294 | 5.2 | 12.2 | 0.00 | 0.07 | 0.01 | 76 | 1007.8 |
| 20260902035509 | 56 | 305 | 6.1 | 12.2 | 0.00 | 0.07 | 0.01 | 76 | 1007.8 |
| 20260902035008 | 57 | 303 | 6.1 | 12.2 | 0.00 | 0.07 | 0.01 | 76 | 1007.7 |
| 20260902034508 | 57 | 295 | 7.0 | 13.9 | 0.00 | 0.07 | 0.01 | 76 | 1007.8 |
| 20260902034008 | 56 | 306 | 6.1 | 13.0 | 0.00 | 0.07 | 0.01 | 76 | 1007.9 |
| 20260902032508 | 56 | 296 | 7.0 | 13.9 | 0.00 | 0.07 | 0.01 | 77 | 1007.7 |
| 20260902032008 | 56 | 303 | 5.2 | 12.2 | 0.00 | 0.07 | 0.01 | 77 | 1007.7 |
| 20260902031008 | 56 | 303 | 4.3 | 12.2 | 0.00 | 0.07 | 0.01 | 78 | 1007.7 |
| 20260902030508 | 56 | 303 | 5.2 | 12.2 | 0.00 | 0.07 | 0.01 | 78 | 1007.7 |
| 20260902025508 | 56 | 306 | 4.3 | 11.3 | 0.00 | 0.07 | 0.01 | 78 | 1007.7 |
| 20260902025008 | 56 | 297 | 4.3 | 11.3 | 0.00 | 0.07 | 0.01 | 78 | 1007.7 |
| 20260902024508 | 56 | 295 | 4.3 | 7.8 | 0.00 | 0.07 | 0.01 | 78 | 1007.6 |
| 20260902024008 | 56 | 299 | 5.2 | 11.3 | 0.00 | 0.07 | 0.01 | 77 | 1007.8 |
| 20260902023508 | 57 | 307 | 5.2 | 11.3 | 0.00 | 0.07 | 0.01 | 77 | 1007.8 |
| 20260902023012 | 57 | 299 | 6.1 | 12.2 | 0.00 | 0.07 | 0.01 | 77 | 1007.8 |
| 20260902022508 | 57 | 307 | 5.2 | 12.2 | 0.00 | 0.07 | 0.01 | 77 | 1007.8 |
| 20260902022008 | 57 | 297 | 5.2 | 11.3 | 0.00 | 0.07 | 0.01 | 78 | 1007.8 |
| 20260902021008 | 56 | 308 | 5.2 | 12.2 | 0.00 | 0.07 | 0.01 | 78 | 1007.8 |
| 20260902020508 | 56 | 299 | 5.2 | 12.2 | 0.00 | 0.07 | 0.01 | 79 | 1007.6 |
| 20260902020011 | 56 | 302 | 4.3 | 10.4 | 0.00 | 0.07 | 0.01 | 79 | 1007.6 |
| 20260902015507 | 57 | 319 | 4.3 | 8.7 | 0.00 | 0.07 | 0.01 | 80 | 1007.5 |
| 20260902015007 | 57 | 304 | 4.3 | 12.2 | 0.00 | 0.07 | 0.01 | 81 | 1007.5 |
| 20260902014508 | 57 | 320 | 5.2 | 12.2 | 0.00 | 0.07 | 0.01 | 80 | 1007.7 |
| 20260902014008 | 57 | 318 | 5.2 | 10.4 | 0.00 | 0.07 | 0.01 | 80 | 1007.6 |
| 20260902013508 | 57 | 323 | 6.1 | 12.2 | 0.00 | 0.07 | 0.01 | 80 | 1007.3 |
| 20260902013011 | 57 | 302 | 5.2 | 11.3 | 0.00 | 0.07 | 0.01 | 81 | 1007.4 |
| 20260902012508 | 57 | 322 | 6.1 | 11.3 | 0.00 | 0.07 | 0.01 | 81 | 1007.2 |
| 20260902012007 | 57 | 304 | 5.2 | 11.3 | 0.00 | 0.07 | 0.01 | 82 | 1007.4 |
| 20260902011508 | 57 | 308 | 6.1 | 13.0 | 0.00 | 0.07 | 0.01 | 83 | 1007.4 |
| 20260902010508 | 57 | 306 | 6.1 | 13.0 | 0.00 | 0.07 | 0.01 | 82 | 1007.5 |
| 20260902010011 | 57 | 312 | 7.0 | 15.6 | 0.00 | 0.07 | 0.01 | 82 | 1007.4 |
| 20260902005507 | 57 | 312 | 6.1 | 14.8 | 0.00 | 0.07 | 0.01 | 83 | 1007.3 |
| 20260902005007 | 58 | 317 | 6.1 | 14.8 | 0.00 | 0.07 | 0.01 | 83 | 1007.3 |
| 20260902004508 | 58 | 303 | 6.1 | 14.8 | 0.00 | 0.07 | 0.01 | 83 | 1007.2 |
| 20260902004008 | 58 | 318 | 7.8 | 15.6 | 0.00 | 0.07 | 0.01 | 82 | 1007.1 |
| 20260902003507 | 58 | 286 | 6.1 | 13.9 | 0.00 | 0.07 | 0.01 | 83 | 1007.2 |
| 20260902003011 | 58 | 296 | 7.8 | 13.9 | 0.00 | 0.07 | 0.01 | 84 | 1007.1 |
| 20260902002008 | 58 | 298 | 6.1 | 14.8 | 0.00 | 0.07 | 0.01 | 84 | 1007.1 |
| 20260902001508 | 58 | 295 | 7.0 | 13.9 | 0.00 | 0.07 | 0.01 | 84 | 1007.0 |
| 20260902001007 | 58 | 291 | 7.8 | 14.8 | 0.00 | 0.07 | 0.01 | 84 | 1007.3 |
| 20260902000508 | 58 | 296 | 8.7 | 18.2 | 0.00 | 0.07 | 0.01 | 84 | 1007.2 |
| 20260902000012 | 58 | 294 | 8.7 | 18.2 | 0.00 | 0.07 | 0.01 | 85 | 1007.3 |
| 20260901235508 | 58 | 300 | 7.8 | 15.6 | 0.00 | 0.07 | 0.01 | 85 | 1007.2 |
| 20260901235007 | 58 | 298 | 10.4 | 20.9 | 0.01 | 0.07 | 0.01 | 85 | 1007.0 |
| 20260901234508 | 58 | 302 | 7.8 | 19.1 | 0.01 | 0.07 | 0.01 | 87 | 1007.0 |
| 20260901234008 | 58 | 302 | 8.7 | 21.7 | 0.01 | 0.07 | 0.01 | 87 | 1007.1 |
| 20260901233508 | 58 | 302 | 7.8 | 18.2 | 0.01 | 0.07 | 0.01 | 89 | 1007.1 |
| 20260901233011 | 59 | 307 | 7.8 | 19.1 | 0.01 | 0.07 | 0.01 | 90 | 1007.1 |
| 20260901232508 | 59 | 296 | 8.7 | 18.2 | 0.01 | 0.07 | 0.01 | 91 | 1007.1 |
| 20260901231008 | 60 | 303 | 8.7 | 20.0 | 0.01 | 0.07 | 0.01 | 92 | 1006.9 |
| 20260901230508 | 60 | 289 | 12.2 | 26.1 | 0.01 | 0.07 | 0.01 | 92 | 1006.9 |
| 20260901225507 | 61 | 258 | 11.3 | 26.9 | 0.01 | 0.07 | 0.01 | 90 | 1007.0 |
| 20260901225007 | 61 | 249 | 12.2 | 22.6 | 0.00 | 0.06 | 0.00 | 89 | 1006.9 |
| 20260901224508 | 61 | 258 | 11.3 | 21.7 | 0.00 | 0.06 | 0.00 | 88 | 1006.9 |
| 20260901224008 | 61 | 258 | 11.3 | 21.7 | 0.00 | 0.06 | 0.00 | 88 | 1006.9 |
| 20260901223508 | 61 | 258 | 11.3 | 20.9 | 0.00 | 0.06 | 0.00 | 88 | 1007.1 |
| 20260901223011 | 61 | 257 | 13.0 | 21.7 | 0.00 | 0.06 | 0.00 | 88 | 1007.1 |
| 20260901222507 | 61 | 259 | 13.9 | 22.6 | 0.00 | 0.06 | 0.00 | 88 | 1006.9 |
| 20260901222007 | 61 | 256 | 11.3 | 24.3 | 0.00 | 0.06 | 0.00 | 89 | 1007.1 |
| 20260901221008 | 61 | 262 | 12.2 | 25.2 | 0.00 | 0.06 | 0.00 | 88 | 1007.0 |
| 20260901220508 | 61 | 251 | 9.6 | 22.6 | 0.00 | 0.06 | 0.00 | 89 | 1007.1 |
| 20260901220011 | 61 | 250 | 10.4 | 21.7 | 0.00 | 0.06 | 0.00 | 89 | 1007.2 |
| 20260901215008 | 60 | 242 | 7.8 | 20.0 | 0.00 | 0.06 | 0.06 | 90 | 1007.2 |
| 20260901214508 | 60 | 253 | 7.8 | 19.1 | 0.00 | 0.06 | 0.06 | 90 | 1007.4 |
| 20260901214008 | 60 | 245 | 10.4 | 19.1 | 0.01 | 0.06 | 0.06 | 90 | 1007.3 |
| 20260901212507 | 59 | 240 | 7.0 | 17.4 | 0.03 | 0.06 | 0.06 | 91 | 1007.3 |
| 20260901212008 | 60 | 218 | 7.8 | 18.2 | 0.03 | 0.06 | 0.06 | 91 | 1007.5 |
| 20260901211508 | 60 | 244 | 8.7 | 21.7 | 0.03 | 0.06 | 0.06 | 89 | 1007.5 |
| 20260901211008 | 60 | 237 | 9.6 | 20.0 | 0.04 | 0.06 | 0.06 | 90 | 1007.5 |
| 20260901210508 | 60 | 232 | 7.8 | 20.9 | 0.04 | 0.06 | 0.06 | 91 | 1007.5 |
| 20260901210011 | 59 | 246 | 7.8 | 14.8 | 0.04 | 0.06 | 0.06 | 92 | 1007.7 |
| 20260901204007 | 58 | 221 | 2.6 | 7.0 | 0.06 | 0.06 | 0.06 | 90 | 1007.6 |